Miami Beach, Florida, United States (33109)
Lat: 25.79N, Lon: 80.13W
Wx Zone: FLZ173
Local Info
Past Weather Observations for Thursday, March 26, 2015

NOTE: This archive is for the closest National Weather Service station to Miami Beach. Information may differ from the station used for current weather conditions.

Click here for Long-term Archive

Time Weather Temperature Dewpoint Humidity Pressure Winds Precip Visibility
23:53
Partly Cloudy
77°F / 25°C 72°F / 22°C 83% 29.98 in
(1015 mb)
S 5.8 mph
(S 9 kph)
- 10SM
22:53
Mostly Cloudy
77°F / 25°C 72°F / 22°C 83% 29.98 in
(1015 mb)
SSE 5.8 mph
(SSE 9 kph)
- 10SM
21:53
Mostly Cloudy
79°F / 26°C 72°F / 22°C 79% 29.98 in
(1015 mb)
S 6.9 mph
(S 11 kph)
- 10SM
20:53
Clear
79°F / 26°C 72°F / 22°C 79% 29.98 in
(1015 mb)
SSE 9.2 mph
(SSE 15 kph)
- 10SM
19:53
Partly Cloudy
79°F / 26°C 70°F / 21°C 74% 29.95 in
(1014 mb)
SSE 6.9 mph
(SSE 11 kph)
- 10SM
18:53
Partly Cloudy
81°F / 27°C 70°F / 21°C 70% 29.95 in
(1014 mb)
S 12.7 mph
(S 20 kph)
- 10SM
17:53
Partly Cloudy
82°F / 28°C 70°F / 21°C 66% 29.95 in
(1014 mb)
SSE 13.8 mph
(SSE 22 kph)
- 10SM
16:53
Partly Cloudy
82°F / 28°C 70°F / 21°C 66% 29.95 in
(1014 mb)
SSE 16.1 mph
(SSE 26 kph)
- 10SM
15:53
Partly Cloudy
84°F / 29°C 70°F / 21°C 62% 29.95 in
(1014 mb)
SSE 16.1 mph
(SSE 26 kph)
- 10SM
14:53
Partly Cloudy
84°F / 29°C 70°F / 21°C 62% 29.98 in
(1015 mb)
SSE 19.6 mph
(SSE 32 kph)
- 10SM
13:53
Partly Cloudy
86°F / 30°C 70°F / 21°C 59% 29.98 in
(1015 mb)
S 15 mph
(S 24 kph)
- 10SM
12:53
Mostly Cloudy
82°F / 28°C 70°F / 21°C 66% 30.01 in
(1016 mb)
SE 13.8 mph
(SE 22 kph)
- 10SM
11:53
Mostly Cloudy
84°F / 29°C 70°F / 21°C 62% 30.04 in
(1017 mb)
SE 17.3 mph
(SE 28 kph)
- 10SM
11:19
Mostly Cloudy
Cumulonimbus Clouds Observed
82°F / 28°C 70°F / 21°C 66% 30.06 in
(1018 mb)
SSE 12.7 mph
(SSE 20 kph)
- 10SM
10:53
Mostly Cloudy
82°F / 28°C 70°F / 21°C 66% 30.06 in
(1018 mb)
SSE 13.8 mph
(SSE 22 kph)
- 10SM
10:02
Mostly Cloudy
82°F / 28°C 72°F / 22°C 70% 30.09 in
(1019 mb)
SSE 13.8 mph
(SSE 22 kph)
- 10SM
09:53
Mostly Cloudy
82°F / 28°C 72°F / 22°C 70% 30.09 in
(1019 mb)
SE 12.7 mph
(SE 20 kph)
- 10SM
08:53
Overcast
81°F / 27°C 70°F / 21°C 70% 30.09 in
(1019 mb)
SSE 11.5 mph
(SSE 19 kph)
- 10SM
07:53
Mostly Cloudy
79°F / 26°C 70°F / 21°C 74% 30.06 in
(1018 mb)
SE 4.6 mph
(SE 7 kph)
- 10SM
06:53
Mostly Cloudy
Partly Cloudy
75°F / 24°C 70°F / 21°C 83% 30.06 in
(1018 mb)
Variable 3.5 mph
(Variable 6 kph)
- 10SM
05:53
Mostly Cloudy
75°F / 24°C 68°F / 20°C 78% 30.04 in
(1017 mb)
SSE 3.5 mph
(SSE 6 kph)
- 10SM
04:53
Partly Cloudy
73°F / 23°C 66°F / 19°C 78% 30.04 in
(1017 mb)
Calm - 10SM
03:53
Clear
73°F / 23°C 64°F / 18°C 74% 30.04 in
(1017 mb)
Calm - 10SM
02:53
Clear
75°F / 24°C 63°F / 17°C 65% 30.04 in
(1017 mb)
Calm - 10SM
01:53
Clear
73°F / 23°C 63°F / 17°C 69% 30.06 in
(1018 mb)
Calm - 10SM
00:53
Partly Cloudy
75°F / 24°C 63°F / 17°C 65% 30.06 in
(1018 mb)
Calm - 10SM
Time Weather Temperature Dewpoint Humidity Pressure Winds Precip Visibility


Weather for websites

WeatherForYou.com, LLC is not responsible for any damages or problems caused by this service. Current weather conditions are obtained from the closest station including government and personal stations which may have varying degrees of accuracy. Weather forecasts are derived from the NOAA NDFD. Like all things, this site belongs to Jesus Christ... He just trusts me to maintain it. If you have any questions or comments email webmaster@weatherforyou.com

Copyright © 2015, WeatherForYou.com LLC. All rights reserved.